User: anonymous   Login
Location: Aalen
(48.8330°N, 10.1000°E)
Time: 15:47:08
(UTC+02:00)
Language:

SPROUT - Orbit

View from above orbital plane
View from above orbital plane
View from above satellite
View from above satellite

Ground track
Ground track

The orbit data is extracted from the following two-line orbital elements,

1 39770U 14029E   24111.08405075  .00222273  00000-0  71842-2 0  9992
2 39770  98.0084 258.2890 0004572 301.5003  58.5789 15.31131782538719
Epoch (UTC): 20 April 2024 02:01:01
Eccentricity: 0.0004572
inclination: 98.0084°
perigee height: 469 km
apogee height: 475 km
right ascension of ascending node: 258.2890°
argument of perigee: 301.5003°
revolutions per day: 15.31131782
mean anomaly at epoch: 58.5789°
orbit number at epoch: 53871

The dashed part of the orbit path shows where the satellite is in the earth's shadow,  

DLR